FW0827 Weather Reports


Display with metric or nautical units.
time (UTC)temp
F
wind
direction
speed
MPH
gust
MPH
rain 1hr
in
rain 24hr
in
rain mn
in
humidity
%
barometer
mb
20260507010139 64 308 0.0 0.0 0.24 0.29 0.29 97 1025.4
20260507005704 64 260 0.0 0.0 0.00 0.25 0.25 96 1009.0
20260507005637 64 260 0.0 0.0 0.00 0.25 0.25 96 1025.7
20260507005203 64 260 0.0 0.0 0.00 0.25 0.25 95 1008.6
20260507005133 64 260 0.0 0.0 0.00 0.25 0.25 95 1025.4
20260507004703 64 259 0.0 0.0 0.00 0.25 0.25 95 1008.6
20260507004630 64 259 0.0 0.0 0.00 0.25 0.25 95 1025.3
20260507004203 64 249 0.0 0.0 0.00 0.25 0.25 94 1008.7
20260507004127 64 248 0.0 0.0 0.00 0.25 0.25 94 1025.4
20260507003624 64 255 0.0 0.0 0.00 0.25 0.25 94 1025.1
20260507003203 64 274 0.0 0.0 0.00 0.25 0.25 94 1008.2
20260507003119 64 274 0.0 0.0 0.00 0.25 0.25 94 1024.9
20260507002704 64 290 0.0 0.0 0.00 0.25 0.25 94 1008.1
20260507002615 64 290 0.0 0.0 0.00 0.25 0.25 94 1024.8
20260507002203 64 290 0.0 0.0 0.00 0.25 0.25 95 1008.1
20260507002111 64 290 0.0 0.0 0.00 0.25 0.25 95 1024.7
20260507001705 64 290 0.0 0.0 0.00 0.25 0.25 95 1007.9
20260507001608 64 290 0.0 0.0 0.00 0.25 0.25 95 1024.6
20260507001203 64 290 0.0 0.0 0.00 0.25 0.25 95 1007.9
20260507001106 64 290 0.0 0.0 0.00 0.25 0.25 95 1024.6
20260507000703 64 290 0.0 0.0 0.00 0.25 0.25 95 1008.1
20260507000602 64 290 0.0 0.0 0.00 0.25 0.25 95 1024.8
20260507000205 64 290 0.0 0.0 0.00 0.25 0.25 94 1007.8
20260507000057 64 290 0.0 0.0 0.00 0.25 0.25 94 1024.5
20260506235703 64 290 0.0 1.0 0.00 0.25 0.25 94 1008.1
20260506235555 64 290 0.0 0.0 0.00 0.25 0.25 94 1024.8
20260506235203 64 290 0.0 1.0 0.00 0.25 0.25 94 1007.9
20260506235050 64 290 0.0 2.0 0.00 0.25 0.25 94 1024.6
20260506234704 65 280 0.0 0.0 0.00 0.25 0.25 94 1007.8
20260506234548 65 280 0.0 0.0 0.00 0.25 0.25 94 1024.5
20260506234045 65 275 0.0 0.0 0.00 0.25 0.25 93 1024.2
20260506233703 65 268 0.0 0.0 0.00 0.25 0.25 93 1007.7
20260506233542 65 267 0.0 0.0 0.00 0.25 0.25 93 1024.3
20260506233204 65 259 0.0 0.0 0.00 0.25 0.25 93 1007.7
20260506233038 65 253 0.0 0.0 0.00 0.25 0.25 93 1024.2
20260506232703 65 278 0.0 1.0 0.00 0.25 0.25 93 1007.7
20260506232534 65 278 0.0 2.0 0.00 0.25 0.25 93 1024.3
20260506232203 65 277 0.0 1.0 0.00 0.25 0.25 93 1007.8
20260506232030 65 277 0.0 0.0 0.00 0.25 0.25 93 1024.3
20260506231704 65 280 0.0 1.0 0.00 0.25 0.25 93 1007.8
20260506231528 65 274 0.0 0.0 0.00 0.25 0.25 93 1024.3
20260506231203 65 278 0.0 0.0 0.00 0.25 0.25 93 1007.6
20260506231021 65 325 0.0 0.0 0.00 0.25 0.25 93 1024.3
20260506230704 65 285 0.0 0.0 0.00 0.25 0.25 93 1007.7
20260506230516 65 289 0.0 0.0 0.00 0.25 0.25 93 1024.2
20260506230014 65 255 0.0 2.0 0.00 0.25 0.25 93 1024.0
20260506225703 65 261 0.0 5.0 0.00 0.25 0.25 93 1007.7
20260506225510 65 267 0.0 0.0 0.00 0.25 0.25 93 1024.2
20260506225006 65 267 0.0 0.0 0.00 0.25 0.25 93 1024.5
20260506224704 65 290 0.0 0.0 0.00 0.25 0.25 93 1007.9
20260506224503 65 289 0.0 0.0 0.00 0.25 0.25 93 1024.6
20260506224203 65 285 0.0 0.0 0.00 0.25 0.25 93 1007.8
20260506224000 65 284 0.0 0.0 0.00 0.25 0.25 92 1024.5
20260506223703 65 284 0.0 0.0 0.00 0.25 0.25 92 1007.7
20260506223456 66 284 0.0 0.0 0.00 0.25 0.25 92 1024.1
20260506223204 66 284 0.0 0.0 0.00 0.25 0.25 92 1007.7
20260506222953 66 284 0.0 0.0 0.00 0.25 0.25 92 1024.2
20260506222703 66 284 0.0 0.0 0.00 0.25 0.25 92 1007.6
20260506222449 66 286 0.0 0.0 0.00 0.25 0.25 92 1024.2
20260506222203 65 281 0.0 0.0 0.00 0.25 0.25 92 1007.6
20260506221946 66 278 0.0 0.0 0.00 0.25 0.25 92 1023.9
20260506221443 65 278 0.0 0.0 0.00 0.25 0.25 93 1024.3
20260506221203 65 278 0.0 0.0 0.00 0.25 0.25 93 1007.6
20260506220941 65 278 0.0 0.0 0.00 0.25 0.25 93 1024.1
20260506220437 65 278 0.0 0.0 0.00 0.25 0.25 93 1024.3
20260506220202 65 278 0.0 0.0 0.00 0.25 0.25 93 1007.7
20260506215933 65 278 0.0 0.0 0.00 0.25 0.25 93 1024.3
20260506215429 65 205 0.0 0.0 0.00 0.25 0.25 93 1024.1
20260506215204 65 257 0.0 0.0 0.00 0.25 0.25 93 1007.6
20260506214925 65 257 0.0 0.0 0.00 0.25 0.25 93 1024.3
20260506214422 65 307 0.0 0.0 0.00 0.25 0.25 93 1024.2
20260506214204 65 309 0.0 0.0 0.00 0.25 0.25 92 1007.5
20260506213920 65 273 0.0 0.0 0.00 0.25 0.25 92 1024.1
20260506213704 65 273 0.0 1.0 0.00 0.25 0.25 92 1007.4
20260506213418 65 269 0.0 2.0 0.00 0.25 0.25 91 1024.0
20260506213204 65 262 0.0 1.0 0.00 0.25 0.25 91 1007.4
20260506212915 66 253 0.0 0.0 0.00 0.25 0.25 91 1024.0
20260506212704 66 234 0.0 1.0 0.00 0.25 0.25 91 1007.1
20260506212411 66 247 0.0 2.0 0.00 0.25 0.25 91 1023.6
20260506212203 66 240 0.0 1.0 0.00 0.25 0.25 91 1007.3
20260506211906 66 241 0.0 2.0 0.00 0.25 0.25 91 1023.9
20260506211703 66 246 0.0 1.0 0.00 0.25 0.25 91 1007.1
20260506211402 66 249 0.0 2.0 0.00 0.25 0.25 91 1023.8
20260506210859 66 239 0.0 2.0 0.00 0.25 0.25 91 1023.8
20260506210703 66 259 0.0 3.0 0.00 0.25 0.25 91 1007.3
20260506210356 66 255 0.0 0.0 0.00 0.25 0.25 91 1023.8
20260506210204 66 264 0.0 3.0 0.00 0.25 0.25 90 1007.2
20260506205853 66 262 0.0 0.0 0.00 0.25 0.25 90 1024.0
20260506205703 66 262 0.0 0.0 0.00 0.25 0.25 90 1007.2
20260506205349 66 233 0.0 0.0 0.00 0.25 0.25 90 1023.7
20260506205203 66 263 0.0 1.0 0.00 0.25 0.25 91 1007.3
20260506204845 66 236 0.0 0.0 0.00 0.25 0.25 90 1023.6
20260506204703 66 236 0.0 5.0 0.00 0.25 0.25 92 1007.2
20260506204343 65 236 0.0 0.0 0.00 0.25 0.25 92 1023.7
20260506203841 65 229 1.0 5.0 0.00 0.25 0.25 92 1023.7
20260506203704 65 251 0.0 0.0 0.00 0.25 0.25 92 1007.1
20260506203338 64 252 0.0 0.0 0.00 0.25 0.25 92 1023.6
20260506203204 65 256 0.0 0.0 0.00 0.25 0.25 93 1007.1
20260506202835 65 262 0.0 0.0 0.00 0.25 0.25 93 1023.6
20260506202332 65 260 0.0 5.0 0.00 0.25 0.25 92 1023.7
20260506202203 65 258 0.0 3.0 0.00 0.25 0.25 92 1007.0
20260506201828 65 302 0.0 0.0 0.00 0.25 0.25 92 1023.7
20260506201704 65 257 0.0 1.0 0.00 0.25 0.25 92 1007.1
20260506201326 65 243 0.0 0.0 0.00 0.25 0.25 92 1023.7
20260506201205 65 243 0.0 3.0 0.00 0.25 0.25 92 1007.3
20260506200822 65 252 0.0 3.0 0.00 0.25 0.25 92 1023.6
20260506200703 65 237 1.0 5.0 0.00 0.25 0.25 92 1007.1
20260506200318 65 249 0.0 5.0 0.00 0.25 0.25 91 1023.7
20260506195814 65 234 0.0 0.0 0.00 0.25 0.25 93 1023.8
20260506195704 64 234 0.0 5.0 0.00 0.25 0.25 92 1007.2
20260506195312 64 249 0.0 3.0 0.00 0.25 0.25 92 1023.8
20260506194809 64 278 0.0 3.0 0.00 0.25 0.25 93 1023.9
20260506194305 64 256 0.0 5.0 0.00 0.25 0.25 93 1024.0
20260506194203 64 256 1.0 5.0 0.00 0.25 0.25 92 1007.5
20260506193803 64 270 0.0 2.0 0.00 0.25 0.25 93 1023.8
20260506193704 64 255 0.0 5.0 0.00 0.25 0.25 93 1007.4
20260506193259 64 229 3.0 3.0 0.00 0.25 0.25 93 1024.0
20260506193204 64 254 0.0 5.0 0.00 0.25 0.25 94 1007.4
20260506192755 64 271 0.0 5.0 0.00 0.25 0.25 93 1023.8
20260506192703 64 226 2.0 7.0 0.00 0.25 0.25 93 1007.4
20260506192253 64 206 3.0 5.0 0.00 0.25 0.25 94 1024.0
20260506192204 64 271 0.0 1.0 0.00 0.25 0.25 94 1007.5
20260506191749 64 250 0.0 0.0 0.00 0.25 0.25 95 1023.9
20260506191245 63 282 0.0 3.0 0.00 0.25 0.25 96 1024.1
20260506191204 62 238 0.0 3.0 0.01 0.25 0.25 95 1007.5
20260506190744 62 255 0.0 3.0 0.00 0.25 0.25 96 1024.5
20260506190703 62 251 0.0 3.0 0.01 0.25 0.25 97 1007.7
20260506190240 62 218 0.0 0.0 0.00 0.25 0.25 97 1024.5
20260506190204 62 271 0.0 0.0 0.01 0.25 0.25 97 1007.6
20260506185737 61 253 0.0 0.0 0.00 0.25 0.25 97 1024.3
20260506185704 61 249 0.0 3.0 0.01 0.25 0.25 97 1007.9
20260506185233 61 240 0.0 2.0 0.00 0.25 0.25 97 1024.6
20260506184731 61 206 1.0 7.0 0.00 0.25 0.25 98 1024.5
20260506184705 61 239 0.0 3.0 0.01 0.25 0.25 98 1007.8
20260506184228 61 231 0.0 3.0 0.00 0.25 0.25 98 1024.8
20260506183725 61 261 1.0 2.0 0.00 0.25 0.25 98 1024.6
20260506183704 61 272 0.0 1.0 0.01 0.25 0.25 99 1008.0
20260506183220 60 243 0.0 0.0 0.00 0.25 0.25 99 1024.7
20260506183204 60 240 0.0 5.0 0.01 0.25 0.25 99 1008.0
20260506182718 60 232 0.0 2.0 0.00 0.25 0.25 99 1024.7
20260506182703 60 253 0.0 1.0 0.01 0.25 0.25 99 1008.1
20260506182215 60 230 0.0 0.0 0.07 0.25 0.25 99 1024.9
20260506181713 60 241 0.0 3.0 0.07 0.25 0.25 99 1025.0
20260506181704 60 207 0.0 5.0 0.01 0.25 0.25 99 1008.3
20260506181210 60 235 0.0 5.0 0.00 0.24 0.24 99 1025.0
20260506181203 60 241 0.0 5.0 0.00 0.24 0.24 99 1008.3
20260506180707 60 242 0.0 5.0 0.00 0.24 0.24 99 1024.9
20260506180703 60 236 1.0 5.0 0.00 0.24 0.24 99 1008.2
20260506180204 60 223 1.0 5.0 0.00 0.24 0.24 99 1008.3
20260506175659 60 249 0.0 0.0 0.00 0.24 0.24 99 1024.8
20260506175156 60 230 0.0 2.0 0.00 0.24 0.24 99 1024.9
20260506174704 60 256 0.0 3.0 0.00 0.24 0.24 99 1008.1
20260506174654 60 248 0.0 0.0 0.00 0.24 0.24 99 1024.8
20260506174204 60 225 1.0 3.0 0.00 0.24 0.24 99 1008.2
20260506174151 60 250 0.0 3.0 0.00 0.24 0.24 99 1025.0
20260506173703 60 241 0.0 8.0 0.00 0.24 0.24 99 1008.2
20260506173649 60 249 0.0 0.0 0.00 0.24 0.24 99 1025.0
20260506173145 60 221 0.0 8.0 0.00 0.24 0.24 99 1024.8
20260506172642 60 197 0.0 2.0 0.00 0.24 0.24 99 1024.9
20260506172204 60 222 0.0 3.0 0.00 0.24 0.24 99 1008.1
20260506172139 60 245 0.0 2.0 0.00 0.24 0.24 99 1024.9
20260506171703 60 270 1.0 3.0 0.00 0.24 0.24 99 1008.1
20260506171636 60 267 0.0 0.0 0.00 0.24 0.24 99 1024.7
20260506171205 60 230 1.0 5.0 0.00 0.24 0.24 99 1008.2
20260506171134 60 209 0.0 2.0 0.00 0.24 0.24 99 1024.8
20260506170703 60 253 0.0 1.0 0.01 0.24 0.24 99 1008.2
20260506170631 60 200 0.0 2.0 0.00 0.24 0.24 99 1025.0
20260506170204 59 224 0.0 7.0 0.01 0.24 0.24 99 1008.5
20260506170123 60 232 0.0 2.0 0.00 0.24 0.24 99 1025.2
20260506165621 60 233 1.0 10.0 0.00 0.24 0.24 99 1025.0
20260506165117 60 222 0.0 5.0 0.00 0.24 0.24 99 1024.9
20260506164704 60 206 0.0 9.0 0.04 0.24 0.24 99 1008.3
20260506164614 60 189 0.0 5.0 0.00 0.24 0.24 99 1024.9
20260506164204 60 202 2.0 7.0 0.05 0.24 0.24 99 1008.2
20260506164112 60 202 4.0 5.0 0.00 0.24 0.24 99 1024.8
20260506163608 60 189 1.0 2.0 0.00 0.24 0.24 99 1024.9
20260506163203 60 200 1.0 3.0 0.07 0.24 0.24 99 1008.2
20260506163103 60 197 1.0 3.0 0.00 0.24 0.24 99 1024.9
20260506162703 60 204 0.0 5.0 0.08 0.24 0.24 99 1008.4
20260506162559 60 203 0.0 0.0 0.00 0.24 0.24 99 1025.1
20260506162204 60 194 1.0 5.0 0.09 0.24 0.24 99 1008.3
20260506162051 60 180 1.0 3.0 0.00 0.24 0.24 99 1025.0
20260506161704 60 218 1.0 5.0 0.09 0.24 0.24 99 1008.5
20260506161548 60 215 0.0 2.0 0.05 0.24 0.24 99 1025.2
20260506161040 60 197 0.0 2.0 0.12 0.24 0.24 99 1024.9
20260506160704 60 194 1.0 3.0 0.10 0.23 0.23 99 1008.3
20260506160537 60 177 1.0 3.0 0.07 0.23 0.23 99 1025.0
20260506160205 60 202 1.0 8.0 0.12 0.23 0.23 99 1008.6
20260506160034 60 195 1.0 3.0 0.05 0.22 0.22 99 1025.2
20260506155704 59 195 0.0 8.0 0.12 0.22 0.22 99 1008.9
20260506155533 59 226 0.0 8.0 0.12 0.22 0.22 99 1025.5
20260506155206 59 198 1.0 3.0 0.13 0.22 0.22 99 1009.2
20260506154704 59 216 0.0 0.0 0.12 0.20 0.20 99 1009.2
20260506153709 59 229 0.0 0.0 0.12 0.18 0.18 99 1026.5
20260506153705 59 226 0.0 0.0 0.12 0.18 0.18 99 1009.7
20260506153207 59 264 0.0 0.0 0.12 0.17 0.17 99 1026.1
20260506153204 59 223 0.0 1.0 0.11 0.17 0.17 99 1009.6
20260506152705 59 231 0.0 1.0 0.11 0.16 0.16 99 1009.5
20260506152203 59 232 0.0 1.0 0.10 0.15 0.15 99 1009.5
20260506152201 59 235 0.0 2.0 0.07 0.15 0.15 99 1026.4
20260506151703 60 219 0.0 0.0 0.11 0.15 0.15 99 1009.4
20260506151701 60 227 0.0 0.0 0.14 0.15 0.15 99 1026.1
20260506151204 60 258 0.0 0.0 0.11 0.14 0.14 99 1009.6
20260506151156 60 259 0.0 0.0 0.12 0.14 0.14 99 1026.3
20260506150704 60 239 0.0 0.0 0.11 0.13 0.13 99 1009.4
20260506150653 60 255 0.0 0.0 0.17 0.13 0.13 99 1026.2
20260506150150 60 211 0.0 0.0 0.12 0.11 0.11 99 1026.0
20260506145704 60 244 0.0 1.0 0.10 0.10 0.10 99 1009.3
20260506145647 60 224 0.0 0.0 0.12 0.10 0.10 99 1026.1
20260506145203 60 260 0.0 1.0 0.09 0.09 0.09 98 1009.3
20260506145143 60 265 0.0 0.0 0.12 0.09 0.09 98 1025.9
20260506144641 60 266 0.0 0.0 0.12 0.08 0.08 98 1026.2
20260506144138 60 221 0.0 0.0 0.05 0.07 0.07 98 1026.1
20260506143705 60 262 0.0 0.0 0.06 0.06 0.06 98 1009.3
20260506143635 60 237 0.0 0.0 0.07 0.06 0.06 98 1026.0
20260506143204 60 250 0.0 0.0 0.06 0.06 0.06 97 1009.4
20260506143133 60 247 0.0 0.0 0.07 0.06 0.06 97 1026.0
20260506142704 60 237 0.0 0.0 0.05 0.05 0.05 97 1009.1
20260506142632 60 263 0.0 0.0 0.05 0.05 0.05 97 1025.9
20260506142204 60 247 0.0 3.0 0.05 0.05 0.05 96 1009.3
20260506142129 60 229 0.0 0.0 0.12 0.05 0.05 96 1026.0
20260506141703 61 223 0.0 0.0 0.04 0.04 0.04 95 1009.4
20260506141626 61 252 0.0 0.0 0.14 0.04 0.04 96 1026.2
20260506141125 61 252 0.0 0.0 0.12 0.03 0.03 94 1025.9
20260506140622 62 266 0.0 2.0 0.12 0.02 0.02 92 1026.1
20260506140204 62 217 0.0 5.0 0.01 0.01 0.01 91 1009.3
20260506140119 62 213 0.0 0.0 0.07 0.01 0.01 91 1025.9
20260506135706 62 188 1.0 5.0 0.00 0.00 0.00 90 1009.1
20260506135616 62 180 2.0 5.0 0.00 0.00 0.00 90 1025.8
20260506135112 62 197 1.0 3.0 0.00 0.00 0.00 90 1025.9
20260506134705 63 215 0.0 5.0 0.00 0.00 0.00 89 1009.3
20260506134609 63 213 0.0 3.0 0.00 0.00 0.00 89 1026.0
20260506134204 63 197 0.0 8.0 0.00 0.00 0.00 89 1009.3
20260506134104 63 206 0.0 2.0 0.00 0.00 0.00 89 1026.1
20260506133705 63 233 1.0 7.0 0.00 0.00 0.00 88 1009.2
20260506133602 63 240 0.0 7.0 0.00 0.00 0.00 88 1025.9
20260506133203 63 237 0.0 3.0 0.00 0.00 0.00 89 1009.1
20260506133059 63 229 0.0 0.0 0.00 0.00 0.00 89 1025.8
20260506132556 63 219 1.0 3.0 0.00 0.00 0.00 88 1025.9
20260506132053 63 242 0.0 3.0 0.00 0.00 0.00 88 1026.1
20260506131703 63 249 1.0 7.0 0.00 0.00 0.00 88 1009.5
20260506131550 63 247 1.0 5.0 0.00 0.00 0.00 88 1026.2
20260506131203 63 242 0.0 7.0 0.00 0.00 0.00 88 1009.5
20260506131047 63 252 0.0 5.0 0.00 0.00 0.00 88 1026.2
20260506130543 63 229 0.0 2.0 0.00 0.00 0.00 87 1026.2
20260506130203 63 231 1.0 13.0 0.00 0.00 0.00 87 1009.5
20260506130041 63 231 0.0 7.0 0.00 0.00 0.00 87 1026.2
20260506125703 63 264 2.0 13.0 0.00 0.00 0.00 86 1009.5
20260506125539 63 269 7.0 13.0 0.00 0.00 0.00 86 1026.1
20260506125204 64 266 2.0 12.0 0.00 0.00 0.00 85 1009.7
20260506125037 64 280 0.0 8.0 0.00 0.00 0.00 85 1026.5
20260506124704 64 219 3.0 9.0 0.00 0.00 0.00 84 1009.6
20260506124534 64 216 5.0 10.0 0.00 0.00 0.00 84 1026.5
20260506124203 64 209 3.0 8.0 0.00 0.00 0.00 84 1009.6
20260506124032 64 212 2.0 8.0 0.00 0.00 0.00 84 1026.2
20260506123704 64 227 1.0 5.0 0.00 0.00 0.00 83 1009.6
20260506123530 64 230 2.0 5.0 0.00 0.00 0.00 83 1026.3
20260506123203 64 212 2.0 5.0 0.00 0.00 0.00 84 1009.5
20260506123028 64 205 3.0 5.0 0.00 0.00 0.00 84 1026.2
20260506122703 64 193 0.0 5.0 0.00 0.00 0.00 83 1009.4
20260506122524 64 242 0.0 3.0 0.00 0.00 0.00 83 1026.1
20260506122022 64 145 1.0 10.0 0.00 0.00 0.00 83 1026.2
20260506121703 64 223 2.0 7.0 0.00 0.00 0.00 83 1009.3
20260506121520 64 157 0.0 0.0 0.00 0.00 0.00 83 1026.3
20260506121015 64 196 1.0 5.0 0.00 0.00 0.00 83 1026.0
20260506120703 64 247 1.0 9.0 0.00 0.00 0.00 82 1009.3
20260506120514 64 203 1.0 7.0 0.00 0.00 0.00 83 1025.8
20260506120203 64 219 2.0 9.0 0.00 0.00 0.00 82 1009.2
20260506120011 64 181 2.0 7.0 0.00 0.00 0.00 82 1025.8
20260506115703 64 240 2.0 12.0 0.00 0.00 0.00 82 1009.1
20260506115509 65 251 0.0 11.0 0.00 0.00 0.00 82 1025.7
20260506115007 65 223 3.0 8.0 0.00 0.00 0.00 82 1025.7
20260506114504 65 242 5.0 8.0 0.00 0.00 0.00 82 1025.6
20260506114203 64 267 3.0 8.0 0.00 0.00 0.00 82 1008.9
20260506114003 64 206 4.0 7.0 0.00 0.00 0.00 82 1025.8
20260506113704 64 211 1.0 7.0 0.00 0.00 0.00 83 1008.9
20260506113500 64 241 0.0 2.0 0.00 0.00 0.00 83 1025.5
20260506113204 64 205 1.0 8.0 0.00 0.00 0.00 83 1008.9
20260506112956 64 255 0.0 5.0 0.00 0.00 0.00 83 1025.7
20260506112704 64 211 4.0 8.0 0.00 0.00 0.00 83 1009.0
20260506112454 64 269 5.0 7.0 0.00 0.00 0.00 83 1025.6
20260506111951 64 237 1.0 2.0 0.00 0.00 0.00 83 1025.5
20260506111449 64 259 0.0 3.0 0.00 0.00 0.00 83 1025.5
20260506111203 64 226 3.0 7.0 0.00 0.00 0.00 83 1008.9
20260506110945 64 211 3.0 5.0 0.00 0.00 0.00 83 1025.6
20260506110443 64 183 3.0 7.0 0.00 0.00 0.00 83 1025.7
20260506110204 64 235 1.0 5.0 0.00 0.00 0.00 83 1009.1
20260506105939 64 252 3.0 5.0 0.00 0.00 0.00 83 1025.6
20260506105436 64 205 1.0 5.0 0.00 0.00 0.00 83 1025.7
20260506104933 64 251 0.0 2.0 0.00 0.00 0.00 83 1025.6
20260506104703 64 234 1.0 3.0 0.00 0.00 0.00 83 1008.9
20260506104431 64 240 1.0 3.0 0.00 0.00 0.00 82 1025.5
20260506104205 64 234 1.0 7.0 0.00 0.00 0.00 82 1008.9
20260506103930 64 232 0.0 2.0 0.00 0.00 0.00 82 1025.4
20260506103704 64 234 0.0 7.0 0.00 0.00 0.00 83 1008.8
20260506103427 64 223 0.0 0.0 0.00 0.00 0.00 82 1025.3
20260506103203 64 211 1.0 5.0 0.00 0.00 0.00 82 1008.8
20260506102924 64 209 0.0 5.0 0.00 0.00 0.00 82 1025.4
20260506102704 64 220 2.0 7.0 0.00 0.00 0.00 82 1008.7
20260506102422 64 192 3.0 7.0 0.00 0.00 0.00 82 1025.4
20260506102203 64 195 1.0 7.0 0.00 0.00 0.00 82 1008.7
20260506101918 64 195 0.0 3.0 0.00 0.00 0.00 82 1025.4
20260506101703 64 237 1.0 7.0 0.00 0.00 0.00 82 1008.8
20260506101414 64 249 0.0 5.0 0.00 0.00 0.00 82 1025.3
20260506101203 64 221 1.0 5.0 0.00 0.00 0.00 82 1008.7
20260506100912 64 225 0.0 5.0 0.00 0.00 0.00 82 1025.3
20260506100703 64 237 0.0 7.0 0.00 0.00 0.00 82 1008.7
20260506100410 64 247 0.0 5.0 0.00 0.00 0.00 82 1025.2
20260506100204 64 222 1.0 8.0 0.00 0.00 0.00 82 1008.6
20260506095908 64 227 0.0 8.0 0.00 0.00 0.00 81 1025.4
20260506095406 65 242 0.0 0.0 0.00 0.00 0.00 81 1025.4
20260506095205 65 198 3.0 13.0 0.00 0.00 0.00 80 1008.7
20260506094902 65 171 7.0 13.0 0.00 0.00 0.00 80 1025.4
20260506094704 65 232 3.0 7.0 0.00 0.00 0.00 80 1008.8
20260506094401 65 231 0.0 3.0 0.00 0.00 0.00 81 1025.5
20260506093858 65 204 1.0 5.0 0.00 0.00 0.00 80 1025.6
20260506093356 65 247 0.0 5.0 0.00 0.00 0.00 80 1025.4
20260506092853 65 259 0.0 3.0 0.00 0.00 0.00 80 1025.5
20260506092351 65 232 0.0 10.0 0.00 0.00 0.00 80 1025.6
20260506092204 65 227 2.0 7.0 0.00 0.00 0.00 80 1008.9
20260506091847 65 236 1.0 5.0 0.00 0.00 0.00 80 1025.4
20260506091704 65 206 2.0 8.0 0.00 0.00 0.00 80 1008.9
20260506091345 65 184 5.0 8.0 0.00 0.00 0.00 80 1025.3
20260506091204 65 240 2.0 8.0 0.00 0.00 0.00 80 1008.8
20260506090837 65 205 5.0 7.0 0.00 0.00 0.00 80 1025.4
20260506090705 65 210 2.0 8.0 0.00 0.00 0.00 81 1008.8
20260506090335 65 219 1.0 5.0 0.00 0.00 0.00 81 1025.3
20260506085831 65 227 0.0 0.0 0.00 0.00 0.00 81 1025.4
20260506085704 65 251 0.0 5.0 0.00 0.00 0.00 81 1008.6
20260506085327 65 260 1.0 5.0 0.00 0.00 0.00 81 1025.6
20260506085204 65 243 0.0 8.0 0.00 0.00 0.00 80 1008.8
20260506084824 65 239 0.0 3.0 0.00 0.00 0.00 80 1025.5
20260506084320 65 253 0.0 3.0 0.00 0.00 0.00 80 1025.4
20260506084203 65 199 3.0 7.0 0.00 0.00 0.00 80 1008.9
20260506083817 66 233 1.0 3.0 0.00 0.00 0.00 80 1025.5
20260506083704 65 245 0.0 8.0 0.00 0.00 0.00 80 1008.9
20260506083315 66 167 2.0 7.0 0.00 0.00 0.00 80 1025.6
20260506083203 65 181 3.0 8.0 0.00 0.00 0.00 80 1008.9
20260506082812 66 203 3.0 5.0 0.00 0.00 0.00 80 1025.7
20260506082704 66 231 1.0 7.0 0.00 0.00 0.00 79 1008.9
20260506082308 66 210 2.0 7.0 0.00 0.00 0.00 79 1025.6
20260506082203 66 224 2.0 8.0 0.00 0.00 0.00 79 1009.0
20260506081805 66 233 3.0 5.0 0.00 0.00 0.00 79 1025.7
20260506081704 65 166 2.0 7.0 0.00 0.00 0.00 79 1008.9
20260506081303 66 257 0.0 7.0 0.00 0.00 0.00 79 1025.7
20260506081203 66 257 1.0 7.0 0.00 0.00 0.00 79 1009.0
20260506080800 66 248 0.0 2.0 0.00 0.00 0.00 79 1025.7
20260506080256 66 245 0.0 3.0 0.00 0.00 0.00 78 1025.6
20260506080204 66 239 0.0 7.0 0.00 0.00 0.00 78 1009.0
20260506073240 66 214 5.0 7.0 0.00 0.00 0.00 77 1025.6
20260506073204 65 228 2.0 7.0 0.00 0.00 0.00 77 1009.0
20260506072737 66 241 0.0 5.0 0.00 0.00 0.00 77 1025.8
20260506072705 65 241 1.0 5.0 0.00 0.00 0.00 77 1009.2
20260506072235 65 205 3.0 5.0 0.00 0.00 0.00 77 1025.7
20260506072205 65 228 1.0 3.0 0.00 0.00 0.00 77 1009.2
20260506071733 66 219 0.0 3.0 0.00 0.00 0.00 76 1025.8
20260506071704 65 204 2.0 5.0 0.00 0.00 0.00 77 1009.3
20260506071230 66 230 1.0 5.0 0.00 0.00 0.00 76 1025.7
20260506071204 65 223 2.0 5.0 0.00 0.00 0.00 76 1009.2
20260506070727 66 248 0.0 3.0 0.00 0.00 0.00 76 1025.9
20260506070704 65 226 1.0 8.0 0.00 0.00 0.00 76 1009.3
20260506070224 66 216 2.0 3.0 0.00 0.00 0.00 76 1025.9
20260506062204 66 227 1.0 5.0 0.00 0.00 0.00 72 1009.6
20260506062201 66 242 0.0 3.0 0.00 0.00 0.00 73 1026.4
20260506061704 66 204 2.0 5.0 0.00 0.00 0.00 72 1009.8
20260506061656 66 216 1.0 5.0 0.00 0.00 0.00 72 1026.4
20260506061204 66 239 0.0 3.0 0.00 0.00 0.00 72 1009.7
20260506061154 66 224 0.0 2.0 0.00 0.00 0.00 72 1026.4
20260506060705 66 234 0.0 3.0 0.00 0.00 0.00 72 1009.7
20260506060653 66 220 0.0 3.0 0.00 0.00 0.00 72 1026.3
20260506060204 66 247 1.0 5.0 0.00 0.00 0.00 71 1009.8
20260506060149 66 266 0.0 0.0 0.00 0.00 0.00 72 1026.5
20260506051121 66 238 0.0 0.0 0.00 0.00 0.00 70 1026.8
20260506050620 66 241 0.0 0.0 0.00 0.00 0.00 69 1026.8
20260506050116 66 246 0.0 0.0 0.00 0.00 0.00 70 1026.7
20260506045110 67 246 0.0 0.0 0.00 0.00 0.00 68 1026.9
20260506044704 67 249 0.0 1.0 0.00 0.00 0.00 69 1010.4
20260506044608 67 249 0.0 0.0 0.00 0.00 0.00 69 1027.1
20260506044204 67 223 0.0 5.0 0.00 0.00 0.00 69 1010.2
20260506044104 67 220 0.0 0.0 0.00 0.00 0.00 69 1026.9
20260506043705 67 254 0.0 1.0 0.00 0.00 0.00 68 1010.4
20260506043601 67 254 0.0 0.0 0.00 0.00 0.00 68 1027.3
20260506043204 67 254 0.0 3.0 0.00 0.00 0.00 68 1010.2
20260506043100 67 257 0.0 0.0 0.00 0.00 0.00 68 1026.8
20260506042703 67 257 0.0 1.0 0.00 0.00 0.00 69 1010.2
20260506042558 67 257 0.0 0.0 0.00 0.00 0.00 69 1026.8
20260506042203 67 255 0.0 1.0 0.00 0.00 0.00 69 1010.2
20260506042056 67 254 0.0 0.0 0.00 0.00 0.00 69 1026.9
20260506041703 67 257 0.0 1.0 0.00 0.00 0.00 68 1010.3
20260506041555 67 257 0.0 0.0 0.00 0.00 0.00 68 1027.1
20260506041204 67 251 0.0 1.0 0.00 0.00 0.00 68 1010.1
20260506041051 67 239 0.0 2.0 0.00 0.00 0.00 68 1026.7
20260506040707 67 261 0.0 3.0 0.00 0.00 0.00 69 1010.2
20260506040549 67 261 0.0 0.0 0.00 0.00 0.00 69 1026.9
20260506040203 67 244 0.0 0.0 0.00 0.00 0.00 68 1010.0
20260506040045 67 244 0.0 0.0 0.00 0.00 0.00 68 1026.8
20260506035702 67 244 0.0 0.0 0.00 0.00 0.00 68 1010.2
20260506035542 67 244 0.0 0.0 0.00 0.00 0.00 68 1026.8
20260506035203 67 244 0.0 3.0 0.00 0.00 0.00 67 1010.3
20260506035038 68 244 0.0 0.0 0.00 0.00 0.00 67 1027.0
20260506034703 67 237 0.0 3.0 0.00 0.00 0.00 66 1010.0
20260506034536 67 233 0.0 3.0 0.00 0.00 0.00 66 1026.6
20260506034203 67 243 0.0 8.0 0.00 0.00 0.00 67 1010.0
20260506034032 67 250 0.0 0.0 0.00 0.00 0.00 67 1026.6
20260506033704 67 260 1.0 8.0 0.00 0.00 0.00 67 1010.2
20260506033530 67 261 1.0 7.0 0.00 0.00 0.00 67 1026.8
20260506033205 67 247 1.0 7.0 0.00 0.00 0.00 67 1010.0
20260506033027 68 266 0.0 3.0 0.00 0.00 0.00 67 1026.6
20260506032703 68 248 0.0 3.0 0.00 0.00 0.00 67 1010.0
20260506032524 68 261 0.0 3.0 0.00 0.00 0.00 67 1026.7
20260506032203 68 208 1.0 3.0 0.00 0.00 0.00 66 1010.0
20260506032021 68 259 0.0 3.0 0.00 0.00 0.00 66 1026.6
20260506031704 68 249 0.0 3.0 0.00 0.00 0.00 66 1010.0
20260506031519 68 245 0.0 3.0 0.00 0.00 0.00 66 1026.7
20260506031205 68 245 0.0 1.0 0.00 0.00 0.00 66 1009.9
20260506031015 68 245 0.0 0.0 0.00 0.00 0.00 66 1026.8
20260506030514 68 247 0.0 3.0 0.00 0.00 0.00 65 1026.8
20260506030203 67 202 1.0 5.0 0.00 0.00 0.00 66 1010.0
20260506030010 68 248 0.0 0.0 0.00 0.00 0.00 67 1026.6
20260506025703 68 235 0.0 5.0 0.00 0.00 0.00 66 1010.1
20260506025507 68 235 0.0 0.0 0.00 0.00 0.00 65 1026.8
20260506025203 68 249 0.0 5.0 0.00 0.00 0.00 65 1010.0
20260506025004 68 229 0.0 0.0 0.00 0.00 0.00 66 1026.7
20260506024704 68 252 0.0 1.0 0.00 0.00 0.00 65 1009.9
20260506024500 68 240 0.0 2.0 0.00 0.00 0.00 65 1026.7
20260506024203 68 241 0.0 0.0 0.00 0.00 0.00 65 1010.1
20260506023956 68 256 0.0 0.0 0.00 0.00 0.00 65 1026.8
20260506023703 68 248 1.0 3.0 0.00 0.00 0.00 65 1010.0
20260506023453 68 223 1.0 3.0 0.00 0.00 0.00 64 1026.8
20260506023204 68 242 0.0 1.0 0.00 0.00 0.00 64 1010.1
20260506022950 68 271 0.0 0.0 0.00 0.00 0.00 65 1026.8
20260506022704 68 249 0.0 3.0 0.00 0.00 0.00 63 1009.9
20260506022448 68 244 0.0 0.0 0.00 0.00 0.00 64 1026.9
20260506022204 69 233 1.0 5.0 0.00 0.00 0.00 63 1010.2
20260506021945 69 211 1.0 5.0 0.00 0.00 0.00 63 1026.8
20260506021703 68 257 0.0 3.0 0.00 0.00 0.00 63 1010.2
20260506021443 69 230 0.0 2.0 0.00 0.00 0.00 63 1026.6
20260506021204 69 248 1.0 3.0 0.00 0.00 0.00 62 1010.1
20260506020939 69 240 0.0 0.0 0.00 0.00 0.00 63 1026.7
20260506020703 69 248 0.0 3.0 0.00 0.00 0.00 62 1010.1
20260506020437 69 193 0.0 2.0 0.00 0.00 0.00 62 1026.8
20260506020204 69 232 0.0 0.0 0.00 0.00 0.00 63 1010.1
20260506015934 69 233 0.0 0.0 0.00 0.00 0.00 63 1026.8
20260506015704 69 233 0.0 0.0 0.00 0.00 0.00 61 1010.0
20260506015432 69 231 0.0 0.0 0.00 0.00 0.00 61 1026.5
20260506015204 69 250 0.0 3.0 0.00 0.00 0.00 60 1010.0
20260506014928 69 254 0.0 0.0 0.00 0.00 0.00 61 1026.6
20260506014426 70 254 0.0 0.0 0.00 0.00 0.00 60 1026.5
20260506013922 70 255 0.0 0.0 0.00 0.00 0.00 60 1026.6
20260506013703 70 245 2.0 5.0 0.00 0.00 0.00 58 1009.8
20260506013420 70 229 0.0 2.0 0.00 0.00 0.00 59 1026.4
20260506013203 71 256 0.0 3.0 0.00 0.00 0.00 59 1009.8
20260506012916 71 195 1.0 3.0 0.00 0.00 0.00 59 1026.6
20260506012704 71 250 0.0 5.0 0.00 0.00 0.00 58 1009.9
20260506012413 71 212 0.0 2.0 0.00 0.00 0.00 58 1026.4
20260506012205 71 214 2.0 5.0 0.00 0.00 0.00 58 1009.6
20260506011910 71 225 0.0 5.0 0.00 0.00 0.00 57 1026.4
20260506011703 71 251 1.0 3.0 0.00 0.00 0.00 58 1009.7
20260506011407 71 245 0.0 0.0 0.00 0.00 0.00 57 1026.3
20260506011203 71 253 0.0 3.0 0.00 0.00 0.00 58 1009.6
20260506010904 71 243 0.0 2.0 0.00 0.00 0.00 56 1026.3
20260506010703 71 226 1.0 3.0 0.00 0.00 0.00 56 1009.5